[[{"header":{"parameterUnit":"m.s-1","parameterCategory":1,"la1":30.2991,"la2":30.254,"lo1":-89.0895,"lo2":-89.0444,"dy":0.0017,"dx":0.0017,"nx":28,"ny":28,"refTime":"2025-05-26T09:00:00:Z","depth":0,"parameterNumber":2,"parameterNumberName":"U-component_of_WINDS"},"data":[0,0,0,0,0,0,0,0,0,0,0,0,0,0,0,0,0,0,0,0,0,0,0,0,0,0,0,0,0,0,0,0,0,0,0,0,0,0,0,0,0,0,0,0,0,0,0,0,0,0,0,0,0,0,0,0,0,0,-0.1406,-0.1405,0,-0.1338,-0.1337,-0.1336,-0.1286,-0.1286,-0.1285,-0.1285,-0.1213,-0.1211,-0.121,0,0,0,0,0,0,0,0,0,0,0,0,0,-0.1491,-0.149,-0.1406,-0.1405,-0.1404,-0.1338,-0.1337,-0.1336,-0.1286,-0.1286,-0.1285,-0.1285,-0.1213,-0.1211,-0.121,0,0,0,0,0,0,0,0,0,0,0,0,0,-0.1442,-0.1489,-0.1406,-0.1371,-0.1368,-0.1338,-0.1337,-0.1336,-0.1286,-0.1286,-0.1285,-0.1285,-0.1214,-0.1212,-0.1209,-0.1208,0,0,-0.1202,-0.1201,0,0,0,0,0,0,0,0,-0.1445,-0.1439,-0.1377,-0.1374,-0.1369,-0.132,-0.134,-0.1293,-0.1287,-0.1317,-0.1285,-0.1284,-0.1249,-0.1244,-0.1232,-0.1205,-0.1201,-0.1202,-0.1201,-0.12,-0.1199,0,0,0,0,0,0,0,-0.1448,-0.1441,-0.1379,-0.1376,-0.1372,-0.1359,-0.1351,-0.1331,-0.1287,-0.1314,-0.1311,-0.1303,-0.1246,-0.1234,-0.123,-0.12,-0.1202,-0.12,-0.1199,-0.1198,-0.1169,-0.117,0,0,0,0,0,0,-0.1457,-0.1444,-0.1381,-0.1377,-0.1406,-0.1358,-0.1349,-0.1336,-0.1287,-0.1279,-0.1304,-0.1301,-0.1239,-0.1233,-0.1227,-0.1223,-0.12,-0.1198,-0.1196,-0.1168,-0.1169,-0.117,0,0,0,0,0,0,-0.1459,-0.1452,-0.1384,-0.141,-0.14,-0.1357,-0.1343,-0.1335,-0.1323,-0.128,-0.1271,-0.13,-0.1238,-0.1231,-0.1214,-0.122,-0.1197,-0.1195,-0.1168,-0.1169,-0.117,-0.1214,0,0,0,0,0,0,-0.1462,-0.1453,-0.1452,-0.141,-0.1399,-0.1372,-0.1343,-0.1335,-0.132,-0.1316,-0.1274,-0.1266,-0.1237,-0.1217,-0.1211,-0.1216,-0.1193,-0.1167,-0.1168,-0.1169,-0.1212,-0.1216,-0.122,0,0,0,0,0,-0.1465,-0.1467,-0.1453,-0.1445,-0.1397,-0.1372,-0.1366,-0.1333,-0.1321,-0.1319,-0.1291,-0.1267,-0.122,-0.1216,-0.1209,-0.1213,-0.1166,-0.1168,-0.1169,-0.121,-0.1215,-0.122,0,0,0,0,0,0,-0.151,-0.1461,-0.1444,-0.1432,-0.1407,-0.1364,-0.1361,-0.134,-0.1317,-0.1314,-0.1273,-0.1264,-0.1252,-0.123,-0.1227,-0.1209,-0.119,-0.119,-0.1224,-0.1229,-0.1233,-0.1238,-0.1191,0,0,0,0,0,-0.1519,-0.1503,-0.1461,-0.1454,-0.1443,-0.1404,-0.1392,-0.1369,-0.1341,-0.133,-0.13,-0.1273,-0.1252,-0.1239,-0.1217,-0.1209,-0.1199,-0.1208,-0.1212,-0.1216,-0.1216,-0.1211,-0.1215,-0.1174,-0.1174,-0.1174,0,0,-0.1536,-0.1507,-0.15,-0.1463,-0.144,-0.1425,-0.1395,-0.138,-0.1368,-0.1327,-0.131,-0.1287,-0.1254,-0.1242,-0.1235,-0.1224,-0.1226,-0.1218,-0.1221,-0.1219,-0.1213,-0.1216,-0.122,-0.1175,-0.1175,-0.1175,0,0,-0.156,-0.1537,-0.1529,-0.1508,-0.1475,-0.1449,-0.1448,-0.1408,-0.1392,-0.1374,-0.1343,-0.1328,-0.1293,-0.1271,-0.1255,-0.1272,-0.1249,-0.1266,-0.1288,-0.1283,-0.1286,-0.1289,-0.1295,-0.1298,-0.1267,-0.1267,-0.1267,0,-0.1586,-0.1562,-0.1528,-0.1515,-0.1499,-0.1463,-0.1455,-0.1436,-0.1397,-0.1387,-0.1376,-0.1331,-0.1306,-0.1289,-0.1293,-0.1281,-0.1278,-0.1271,-0.1289,-0.1291,-0.1293,-0.1299,-0.1301,-0.1269,-0.1269,-0.1269,-0.1269,0,-0.1595,-0.1579,-0.1577,-0.1542,-0.1526,-0.1516,-0.148,-0.1468,-0.1447,-0.1423,-0.1406,-0.1375,-0.1347,-0.1341,-0.1319,-0.132,-0.1314,-0.1297,-0.1276,-0.13,-0.1304,-0.1306,-0.1273,-0.1272,-0.1271,-0.1271,0,0,-0.1644,-0.1592,-0.1592,-0.1576,-0.1537,-0.1524,-0.1512,-0.1485,-0.1476,-0.1451,-0.144,-0.1411,-0.1395,-0.1377,-0.1353,-0.1349,-0.1365,-0.1331,-0.133,-0.1339,-0.1364,-0.1378,-0.1381,-0.135,-0.135,-0.135,-0.1367,0,-0.1662,-0.164,-0.161,-0.1597,-0.1582,-0.1547,-0.1537,-0.1512,-0.149,-0.1473,-0.1448,-0.1429,-0.1408,-0.1397,-0.1392,-0.1364,-0.1369,-0.1363,-0.1339,-0.1338,-0.1348,-0.1383,-0.1397,-0.1415,-0.1368,-0.1369,-0.1369,0,-0.168,-0.1658,-0.1644,-0.1608,-0.16,-0.1592,-0.1566,-0.155,-0.1521,-0.1505,-0.1486,-0.1461,-0.1446,-0.1429,-0.1408,-0.1404,-0.1392,-0.1378,-0.1377,-0.1374,-0.1355,-0.1381,-0.1419,-0.1422,-0.1371,-0.1371,-0.1371,0,-0.1718,-0.1685,-0.1673,-0.166,-0.1617,-0.1612,-0.1593,-0.1564,-0.155,-0.1527,-0.1518,-0.1493,-0.148,-0.1461,-0.1429,-0.1419,-0.1412,-0.1392,-0.1398,-0.1399,-0.1398,-0.1398,-0.1435,-0.139,-0.139,-0.139,-0.139,0,-0.1742,-0.1735,-0.1689,-0.1682,-0.1673,-0.1638,-0.163,-0.1609,-0.1583,-0.157,-0.1539,-0.1528,-0.1487,-0.147,-0.1446,-0.1432,-0.1426,-0.1413,-0.1406,-0.1416,-0.1417,-0.1407,-0.1405,-0.1391,-0.1391,-0.1391,-0.1391,0,-0.1782,-0.1752,-0.1736,-0.1697,-0.1687,-0.1683,-0.1649,-0.164,-0.1616,-0.1601,-0.1595,-0.1558,-0.1537,-0.1504,-0.1473,-0.1456,-0.1448,-0.1437,-0.1458,-0.1454,-0.1462,-0.1462,-0.1494,-0.1497,-0.1451,-0.1451,-0.1452,0,-0.1799,-0.1793,-0.1754,-0.1744,-0.1727,-0.1711,-0.1697,-0.1663,-0.165,-0.1617,-0.1613,-0.159,-0.157,-0.1539,-0.1508,-0.1485,-0.1473,-0.1486,-0.1469,-0.1479,-0.1473,-0.1474,-0.1473,-0.149,-0.149,-0.1491,-0.1491,0,-0.1833,-0.1818,-0.18,-0.1777,-0.1762,-0.1742,-0.172,-0.1713,-0.1674,-0.1661,-0.164,-0.1625,-0.1594,-0.1572,-0.1545,-0.1525,-0.1502,-0.1497,-0.1497,-0.1507,-0.1519,-0.1513,-0.1469,-0.1496,-0.1496,-0.1495,-0.1495,-0.1495,-0.1862,-0.1855,-0.1827,-0.1808,-0.1789,-0.1769,-0.176,-0.1735,-0.1717,-0.1691,-0.1671,-0.1652,-0.1624,-0.1585,-0.1567,-0.1551,-0.154,-0.154,-0.154,-0.1541,-0.1545,-0.1522,-0.1545,-0.1545,-0.1545,-0.1545,-0.1545,0,-0.1894,-0.1875,-0.1858,-0.1829,-0.1814,-0.1795,-0.177,-0.1758,-0.1742,-0.1718,-0.17,-0.1676,-0.1655,-0.1623,-0.1599,-0.1593,-0.1581,-0.1587,-0.1587,-0.1583,-0.1555,-0.1558,-0.1597,-0.1597,-0.1597,-0.1597,-0.1597,-0.1597,-0.1909,-0.1897,-0.188,-0.1858,-0.1838,-0.1819,-0.1807,-0.1789,-0.177,-0.1745,-0.1728,-0.1708,-0.1681,-0.1655,-0.1634,-0.1625,-0.1618,-0.1628,-0.1616,-0.159,-0.1585,-0.1581,-0.1583,-0.1626,-0.1627,-0.1645,-0.1645,-0.1645]},{"header":{"parameterUnit":"m.s-1","parameterCategory":1,"la1":30.2991,"la2":30.254,"lo1":-89.0895,"lo2":-89.0444,"dy":0.0017,"dx":0.0017,"nx":28,"ny":28,"refTime":"2025-05-26T09:00:00:Z","depth":0,"parameterNumber":3,"parameterNumberName":"V-component_of_WINDS"},"data":[0,0,0,0,0,0,0,0,0,0,0,0,0,0,0,0,0,0,0,0,0,0,0,0,0,0,0,0,0,0,0,0,0,0,0,0,0,0,0,0,0,0,0,0,0,0,0,0,0,0,0,0,0,0,0,0,0,0,4.0861,4.0861,0,4.08,4.0799,4.0799,4.0767,4.0767,4.0767,4.0767,4.07,4.0698,4.0697,0,0,0,0,0,0,0,0,0,0,0,0,0,4.0948,4.0947,4.0861,4.0861,4.086,4.08,4.0799,4.0798,4.0767,4.0767,4.0767,4.0766,4.0701,4.0699,4.0696,0,0,0,0,0,0,0,0,0,0,0,0,0,4.0901,4.0946,4.0862,4.0837,4.0834,4.08,4.0799,4.0798,4.0767,4.0767,4.0767,4.0766,4.0701,4.0699,4.0696,4.0681,0,0,4.0688,4.0687,0,0,0,0,0,0,0,0,4.0904,4.0898,4.0841,4.0839,4.0835,4.0791,4.0805,4.0759,4.0767,4.0792,4.0767,4.0766,4.073,4.0725,4.0714,4.0678,4.0675,4.0688,4.0686,4.0685,4.0685,0,0,0,0,0,0,0,4.0907,4.09,4.0837,4.0841,4.0837,4.0828,4.0821,4.0796,4.0762,4.079,4.0787,4.0781,4.0728,4.0716,4.0712,4.0674,4.0688,4.0686,4.0684,4.0683,4.0623,4.0623,0,0,0,0,0,0,4.0915,4.0903,4.0839,4.0835,4.087,4.0826,4.0819,4.0805,4.0762,4.0756,4.0781,4.078,4.0721,4.0715,4.0709,4.0689,4.0685,4.0683,4.0681,4.0623,4.0623,4.0623,0,0,0,0,0,0,4.0917,4.0909,4.0841,4.0868,4.0859,4.0825,4.081,4.0804,4.0792,4.0755,4.0749,4.0775,4.072,4.0713,4.0689,4.0686,4.0682,4.0679,4.0623,4.0623,4.0623,4.0648,0,0,0,0,0,0,4.0919,4.091,4.0905,4.0869,4.0858,4.0823,4.081,4.0803,4.0788,4.0785,4.0748,4.0742,4.072,4.0693,4.0686,4.0682,4.0677,4.0623,4.0623,4.0623,4.0647,4.0649,4.065,0,0,0,0,0,4.0922,4.0913,4.0905,4.0897,4.0851,4.0823,4.0816,4.0792,4.0788,4.0782,4.0758,4.0743,4.0688,4.069,4.0683,4.0678,4.0623,4.0623,4.0623,4.0647,4.0649,4.065,0,0,0,0,0,0,4.0948,4.0908,4.0898,4.0877,4.0854,4.0817,4.0809,4.0795,4.0771,4.077,4.074,4.0732,4.071,4.0692,4.0696,4.0662,4.0654,4.0652,4.0674,4.0676,4.0677,4.0682,4.0675,0,0,0,0,0,4.0952,4.0934,4.0899,4.0884,4.0873,4.0843,4.083,4.0814,4.0788,4.0777,4.0752,4.0727,4.0703,4.0689,4.0665,4.0645,4.0636,4.0638,4.0639,4.0641,4.064,4.0627,4.0628,4.0623,4.0623,4.0623,0,0,4.0959,4.0934,4.0925,4.0889,4.0869,4.085,4.0835,4.0815,4.0801,4.0774,4.075,4.073,4.07,4.0678,4.0666,4.0661,4.0639,4.0641,4.0642,4.064,4.0627,4.0628,4.0628,4.0623,4.0623,4.0623,0,0,4.0961,4.0941,4.0927,4.0907,4.0878,4.0858,4.0855,4.0821,4.0807,4.0783,4.0763,4.0744,4.0705,4.0684,4.0668,4.0664,4.0649,4.0657,4.0665,4.0653,4.0654,4.0654,4.0652,4.0652,4.0656,4.0656,4.0656,0,4.0973,4.0945,4.0921,4.0903,4.0887,4.0864,4.0848,4.083,4.0794,4.0784,4.0779,4.073,4.0707,4.068,4.0679,4.0667,4.0662,4.0661,4.0656,4.0656,4.0656,4.0654,4.0653,4.0657,4.0657,4.0657,4.0657,0,4.096,4.0941,4.0933,4.09,4.0884,4.0867,4.084,4.0826,4.0811,4.0792,4.0767,4.074,4.0711,4.0703,4.0688,4.0673,4.0671,4.0662,4.0653,4.0658,4.0655,4.0655,4.0659,4.0659,4.0658,4.0658,0,0,4.0977,4.0932,4.093,4.0915,4.0881,4.0865,4.0847,4.082,4.0808,4.0784,4.0768,4.0736,4.0727,4.0709,4.0692,4.0682,4.068,4.0673,4.0672,4.0675,4.0663,4.067,4.067,4.067,4.067,4.067,4.0665,0,4.0975,4.0943,4.0921,4.0897,4.0879,4.0857,4.0841,4.0818,4.08,4.0781,4.076,4.0737,4.0727,4.0717,4.0706,4.0683,4.0677,4.0683,4.0654,4.0653,4.0663,4.0669,4.0676,4.0674,4.0664,4.0664,4.0664,0,4.0967,4.0946,4.0921,4.089,4.0881,4.0868,4.0841,4.0824,4.0797,4.0784,4.0765,4.0747,4.0726,4.072,4.0691,4.0696,4.0683,4.067,4.0669,4.0665,4.0659,4.0665,4.0672,4.0672,4.0662,4.0662,4.0663,0,4.0982,4.0947,4.0927,4.0915,4.0878,4.0869,4.0853,4.0826,4.0812,4.0788,4.0778,4.0752,4.0738,4.0718,4.0694,4.0691,4.0667,4.0659,4.0655,4.0656,4.0651,4.0651,4.0656,4.0643,4.0643,4.0643,4.0643,0,4.0982,4.0967,4.0933,4.0921,4.0904,4.0879,4.0863,4.0845,4.0821,4.0805,4.0783,4.0768,4.0737,4.0717,4.0698,4.0677,4.067,4.0659,4.0654,4.0661,4.0662,4.0652,4.0651,4.0643,4.0643,4.0643,4.0643,0,4.0995,4.0972,4.0949,4.0917,4.0908,4.0897,4.0868,4.0855,4.0836,4.0816,4.0809,4.0779,4.0755,4.0729,4.0696,4.0683,4.0663,4.0655,4.0672,4.0669,4.0667,4.0668,4.0665,4.0663,4.0652,4.0652,4.0652,0,4.0996,4.0985,4.0952,4.094,4.0925,4.0906,4.0891,4.0866,4.0851,4.082,4.0811,4.0786,4.0765,4.0728,4.0702,4.0677,4.0668,4.0669,4.0664,4.0672,4.0668,4.0669,4.0668,4.067,4.0671,4.0671,4.0671,0,4.1001,4.099,4.0971,4.0948,4.0931,4.0911,4.089,4.0881,4.0851,4.0836,4.0812,4.0796,4.0763,4.0738,4.071,4.0692,4.0677,4.0673,4.0671,4.0678,4.0688,4.0682,4.0676,4.0673,4.0673,4.0673,4.0673,4.0673,4.1008,4.0997,4.0973,4.0951,4.0933,4.0914,4.0901,4.0881,4.0861,4.0833,4.0819,4.0796,4.0769,4.073,4.0713,4.0693,4.0688,4.0685,4.0684,4.0684,4.0686,4.0692,4.0688,4.0688,4.0688,4.0688,4.0688,0,4.1012,4.0995,4.0976,4.0948,4.0932,4.092,4.0896,4.0883,4.0863,4.084,4.082,4.0793,4.0769,4.0742,4.0716,4.0706,4.0698,4.07,4.07,4.0696,4.0692,4.0696,4.0707,4.0707,4.0707,4.0707,4.0707,4.0707,4.1012,4.0993,4.0979,4.0951,4.0934,4.0912,4.0899,4.0882,4.0864,4.0835,4.0815,4.0798,4.0774,4.0746,4.0724,4.0716,4.0707,4.0712,4.0702,4.0698,4.0697,4.0695,4.0699,4.071,4.071,4.0708,4.0708,4.0708]}]]